Location: Cahas Mountain Overlook
(37.0833°N, 80.1000°W)
Time: 06:33:16
(UTC-05:00)

Vanguard 2 Rocket - Pass Details

Date: 08 February 2026
Orbit: 553 x 3287 km, 32.9° (Epoch: 5 March)

Event Time Altitude Azimuth Distance (km) Brightness Sun altitude
Rises 19:16:21 0° 272° (W) 4,515 12.2 -17.0°
Reaches altitude 10° 19:20:06 10° 268° (W) 3,106 10.9 -17.8°
Maximum altitude 19:26:50 49° 195° (SSW) 1,030 7.2 -19.1°
Enters shadow 19:29:10 27° 134° (SE) 1,340 7.4 -19.6°
